Preview of NWS' New Version of Forecast
This preview is not operational and should not be used for support decisions.

Regional Weather Roundup (RWR)

Issued by National Weather Service (NWS)

                            
000
ASUS43 KLSX 212257
RWRMO 

WEATHER SUMMARY FOR MISSOURI
NATIONAL WEATHER SERVICE SPRINGFIELD MO
600 PM CDT SAT SEP 21 2019

NOTE: "FAIR" INDICATES FEW OR NO CLOUDS BELOW 12,000 FEET WITH NO
       SIGNIFICANT WEATHER AND/OR OBSTRUCTIONS TO VISIBILITY.
       CURRENT SKY AND/OR WEATHER CONDITIONS ARE NOT AVAILABLE FOR
       CHILLICOTHE AND FARMINGTON.

MOZ001>031-035>038-043-044-053-054-220000-
...NORTHERN AND WESTERN MISSOURI...
  
CITY           SKY/WX    TMP DP  RH WIND       PRES   REMARKS
KANSAS CTY INT PTSUNNY   73  69  87 S15       29.93F                  
LEE'S SUMMIT   CLOUDY    74  69  85 S15G22    29.96S                  
ST JOSEPH      PTSUNNY   77  69  76 S12G26    29.91S                  
CHILLICOTHE      N/A     75  72  90 S9        29.95S                  
     
$$
MOZ066>068-077>081-088>096-101>105-220000-
...SOUTHWEST MISSOURI...
  
CITY           SKY/WX    TMP DP  RH WIND       PRES   REMARKS
SPRINGFIELD    PTSUNNY   84  66  54 S15       30.03S                  
JOPLIN         PTSUNNY   81  69  67 S10       30.01S                  
BRANSON        PTSUNNY   81  66  61 S8G16     30.08S                  
               
$$
MOZ032>034-039>042-045>050-055>058-069>072-220000-
...CENTRAL MISSOURI...  
  
CITY           SKY/WX    TMP DP  RH WIND       PRES   REMARKS
COLUMBIA       NOT AVBL                                               
JEFFERSON CITY LGT RAIN  78  71  79 SE6       30.00F                  
ROLLA          MOSUNNY   81  67  62 S8        30.06S                  
SEDALIA        MOSUNNY   72  71  97 S10       30.01S                  
WHITEMAN AFB   CLOUDY    73  73 100 S14       29.95F                  
WARRENSBURG    PTSUNNY   73  68  83 S13       29.98F                  
               
$$
MOZ051-052-059>065-220000-
...EAST CENTRAL MISSOURI...
  
CITY           SKY/WX    TMP DP  RH WIND       PRES   REMARKS
ST LOUIS INTL  PTSUNNY   83  68  60 S12       30.05F                  
                   
$$
MOZ072>076-082>087-097>100-106>115-220000-
...SOUTH CENTRAL AND SOUTHEAST MISSOURI...
  
CITY           SKY/WX    TMP DP  RH WIND       PRES   REMARKS
CAPE GIRARDEAU FAIR      84  64  50 S8        30.08S                  
POPLAR BLUFF   FAIR      84  65  52 S6        30.08F                  
WEST PLAINS    MOSUNNY   82  66  58 S9        30.09F                  
                                       
$$